[[{"header":{"parameterUnit":"m.s-1","parameterCategory":1,"la1":30.2991,"la2":30.254,"lo1":-89.0895,"lo2":-89.0444,"dy":0.0017,"dx":0.0017,"nx":28,"ny":28,"refTime":"2023-10-10T21:00:00:Z","depth":0,"parameterNumber":2,"parameterNumberName":"U-component_of_WINDS"},"data":[0,0,0,0,0,0,0,0,0,0,0,0,0,0,0,0,0,0,0,0,0,0,0,0,0,0,0,0,0,0,0,0,0,0,0,0,0,0,0,0,0,0,0,0,0,0,0,0,0,0,0,0,0,0,0,0,0,0,-2.6719,-2.672,0,-2.6805,-2.6806,-2.6807,-2.6755,-2.6753,-2.675,-2.6748,-2.6834,-2.6839,-2.6843,0,0,0,0,0,0,0,0,0,0,0,0,0,-2.6509,-2.6513,-2.6719,-2.672,-2.6721,-2.6805,-2.6806,-2.6807,-2.6756,-2.6753,-2.675,-2.6747,-2.6833,-2.6838,-2.6844,0,0,0,0,0,0,0,0,0,0,0,0,0,-2.6598,-2.6514,-2.6718,-2.6705,-2.6705,-2.6804,-2.6806,-2.6807,-2.6756,-2.6752,-2.6749,-2.6745,-2.6831,-2.6838,-2.6845,-2.6961,0,0,-2.6866,-2.6869,0,0,0,0,0,0,0,0,-2.6593,-2.6606,-2.6706,-2.6706,-2.6706,-2.6765,-2.6763,-2.6859,-2.6757,-2.6737,-2.6748,-2.6743,-2.6814,-2.6822,-2.6847,-2.6965,-2.6969,-2.6866,-2.6871,-2.6873,-2.6875,0,0,0,0,0,0,0,-2.6587,-2.6602,-2.6753,-2.6708,-2.6708,-2.6695,-2.6703,-2.6781,-2.6795,-2.6738,-2.6735,-2.6746,-2.6814,-2.684,-2.6848,-2.697,-2.6866,-2.6872,-2.6877,-2.6879,-2.7189,-2.7193,0,0,0,0,0,0,-2.6582,-2.6597,-2.675,-2.6755,-2.6639,-2.6702,-2.6711,-2.675,-2.6794,-2.6797,-2.6749,-2.6743,-2.683,-2.684,-2.6851,-2.6991,-2.6873,-2.688,-2.6884,-2.7185,-2.719,-2.7195,0,0,0,0,0,0,-2.6577,-2.6596,-2.6746,-2.6675,-2.6693,-2.6709,-2.6753,-2.6754,-2.678,-2.6802,-2.6804,-2.6773,-2.6828,-2.6841,-2.6934,-2.6993,-2.6883,-2.6889,-2.7181,-2.7187,-2.7193,-2.7272,0,0,0,0,0,0,-2.6572,-2.6595,-2.6639,-2.6677,-2.6697,-2.6829,-2.6757,-2.6758,-2.6792,-2.6786,-2.6826,-2.6829,-2.6826,-2.6924,-2.6941,-2.7001,-2.6895,-2.7175,-2.7183,-2.7191,-2.7264,-2.728,-2.7293,0,0,0,0,0,-2.6564,-2.6658,-2.6642,-2.6661,-2.6754,-2.6832,-2.6844,-2.6839,-2.6797,-2.6842,-2.6857,-2.6828,-2.6984,-2.6934,-2.6953,-2.7015,-2.7172,-2.7181,-2.719,-2.7257,-2.7276,-2.7293,0,0,0,0,0,0,-2.6627,-2.6662,-2.6645,-2.6754,-2.6791,-2.6824,-2.688,-2.686,-2.6909,-2.6901,-2.6892,-2.6901,-2.6999,-2.7016,-2.696,-2.7131,-2.7071,-2.7085,-2.7116,-2.7134,-2.7149,-2.7143,-2.69,0,0,0,0,0,-2.6653,-2.6715,-2.6742,-2.6835,-2.6855,-2.6865,-2.6899,-2.6892,-2.6929,-2.6944,-2.6965,-2.7003,-2.706,-2.7098,-2.7152,-2.7266,-2.7274,-2.7318,-2.7333,-2.7345,-2.7356,-2.7418,-2.7438,-2.7225,-2.7225,-2.7225,0,0,-2.6708,-2.6735,-2.6775,-2.6848,-2.6876,-2.694,-2.6878,-2.6948,-2.6995,-2.6955,-2.7044,-2.7061,-2.7102,-2.7206,-2.7253,-2.7224,-2.7417,-2.7356,-2.7366,-2.7371,-2.743,-2.745,-2.7468,-2.7231,-2.723,-2.7229,0,0,-2.6841,-2.6868,-2.6949,-2.6978,-2.7021,-2.7027,-2.7046,-2.7083,-2.7093,-2.7182,-2.7154,-2.7209,-2.7309,-2.7339,-2.7368,-2.7513,-2.7488,-2.753,-2.7607,-2.7668,-2.7684,-2.7699,-2.7751,-2.777,-2.7542,-2.7542,-2.7542,0,-2.6904,-2.6999,-2.6992,-2.7065,-2.7098,-2.7066,-2.7147,-2.7175,-2.7234,-2.7258,-2.7224,-2.7348,-2.7373,-2.7484,-2.752,-2.7544,-2.7566,-2.7526,-2.7683,-2.7698,-2.7711,-2.7761,-2.778,-2.7547,-2.7547,-2.7546,-2.7546,0,-2.7075,-2.7141,-2.7201,-2.7259,-2.7299,-2.7376,-2.738,-2.7421,-2.7411,-2.742,-2.7512,-2.7541,-2.7601,-2.7627,-2.7617,-2.7737,-2.7717,-2.7684,-2.7624,-2.7737,-2.7783,-2.7802,-2.7554,-2.7552,-2.7551,-2.755,0,0,-2.725,-2.7303,-2.7325,-2.7351,-2.7396,-2.7447,-2.7522,-2.7581,-2.7617,-2.7658,-2.7721,-2.7806,-2.7775,-2.7808,-2.7801,-2.7854,-2.7967,-2.7814,-2.7814,-2.7841,-2.8101,-2.8127,-2.8149,-2.7951,-2.7955,-2.7958,-2.8098,0,-2.7386,-2.7518,-2.7514,-2.7636,-2.7697,-2.7667,-2.7732,-2.7767,-2.7778,-2.7831,-2.7843,-2.7903,-2.7858,-2.7878,-2.7929,-2.7943,-2.802,-2.7933,-2.8009,-2.8012,-2.8,-2.8173,-2.82,-2.8331,-2.8116,-2.8119,-2.8121,0,-2.7563,-2.761,-2.7739,-2.7776,-2.7801,-2.786,-2.7914,-2.7965,-2.8004,-2.8008,-2.8045,-2.803,-2.8105,-2.8043,-2.8147,-2.8088,-2.8119,-2.8131,-2.8136,-2.8143,-2.8074,-2.8185,-2.8373,-2.8393,-2.815,-2.8147,-2.8145,0,-2.7678,-2.7774,-2.7864,-2.7887,-2.7932,-2.7974,-2.7994,-2.8029,-2.8065,-2.8112,-2.8135,-2.819,-2.822,-2.8263,-2.8263,-2.8218,-2.8368,-2.8306,-2.8374,-2.8374,-2.8407,-2.8405,-2.8603,-2.8427,-2.8427,-2.8426,-2.8426,0,-2.7831,-2.7911,-2.7916,-2.7972,-2.806,-2.8055,-2.8143,-2.8159,-2.819,-2.8248,-2.8225,-2.8279,-2.8276,-2.8331,-2.8331,-2.8418,-2.8431,-2.8437,-2.8436,-2.8439,-2.8439,-2.846,-2.8451,-2.8431,-2.843,-2.8429,-2.8428,0,-2.7974,-2.7982,-2.8077,-2.8112,-2.8122,-2.8186,-2.8216,-2.8268,-2.8277,-2.835,-2.8367,-2.8381,-2.8444,-2.8449,-2.8522,-2.8522,-2.8627,-2.8616,-2.8614,-2.8613,-2.868,-2.8674,-2.8898,-2.8928,-2.8732,-2.8734,-2.8736,0,-2.8072,-2.8133,-2.8174,-2.8211,-2.8234,-2.8294,-2.8331,-2.8327,-2.8366,-2.8415,-2.8462,-2.8523,-2.8572,-2.8675,-2.8692,-2.8748,-2.8738,-2.8813,-2.8746,-2.8748,-2.874,-2.8736,-2.8742,-2.8826,-2.8828,-2.883,-2.8831,0,-2.8244,-2.8244,-2.8298,-2.8354,-2.8398,-2.8441,-2.8482,-2.8513,-2.8515,-2.856,-2.8625,-2.8663,-2.8738,-2.88,-2.8855,-2.8875,-2.8854,-2.8852,-2.8871,-2.8875,-2.8872,-2.8875,-2.865,-2.8847,-2.8845,-2.8844,-2.8843,-2.8843,-2.8368,-2.8421,-2.8458,-2.8519,-2.8549,-2.8587,-2.8638,-2.8653,-2.8708,-2.8769,-2.8764,-2.8836,-2.8873,-2.8945,-2.8969,-2.9026,-2.9,-2.9027,-2.9034,-2.9041,-2.9048,-2.8862,-2.9035,-2.9035,-2.9035,-2.9034,-2.9034,0,-2.8539,-2.8562,-2.8617,-2.8675,-2.8723,-2.8699,-2.8742,-2.8784,-2.8848,-2.8884,-2.8933,-2.9008,-2.9068,-2.9089,-2.9147,-2.9188,-2.9179,-2.9203,-2.92,-2.9205,-2.9067,-2.9046,-2.9209,-2.9209,-2.9209,-2.9209,-2.9208,-2.9208,-2.8634,-2.8722,-2.8727,-2.883,-2.8852,-2.8923,-2.895,-2.8985,-2.9014,-2.9099,-2.9149,-2.9162,-2.9192,-2.9252,-2.9306,-2.931,-2.9333,-2.9361,-2.9361,-2.9232,-2.9215,-2.9198,-2.9177,-2.9365,-2.9366,-2.9494,-2.9495,-2.9496]},{"header":{"parameterUnit":"m.s-1","parameterCategory":1,"la1":30.2991,"la2":30.254,"lo1":-89.0895,"lo2":-89.0444,"dy":0.0017,"dx":0.0017,"nx":28,"ny":28,"refTime":"2023-10-10T21:00:00:Z","depth":0,"parameterNumber":3,"parameterNumberName":"V-component_of_WINDS"},"data":[0,0,0,0,0,0,0,0,0,0,0,0,0,0,0,0,0,0,0,0,0,0,0,0,0,0,0,0,0,0,0,0,0,0,0,0,0,0,0,0,0,0,0,0,0,0,0,0,0,0,0,0,0,0,0,0,0,0,-0.8176,-0.8175,0,-0.8078,-0.8077,-0.8076,-0.8063,-0.8064,-0.8065,-0.8066,-0.7966,-0.7963,-0.7959,0,0,0,0,0,0,0,0,0,0,0,0,0,-0.8351,-0.8348,-0.8176,-0.8174,-0.8173,-0.8078,-0.8077,-0.8076,-0.8063,-0.8064,-0.8065,-0.8066,-0.7967,-0.7963,-0.7959,0,0,0,0,0,0,0,0,0,0,0,0,0,-0.8267,-0.8347,-0.8176,-0.8155,-0.8153,-0.8079,-0.8077,-0.8075,-0.8063,-0.8064,-0.8065,-0.8067,-0.7969,-0.7964,-0.7958,-0.7898,0,0,-0.7942,-0.794,0,0,0,0,0,0,0,0,-0.8271,-0.826,-0.816,-0.8157,-0.8153,-0.8084,-0.8102,-0.8016,-0.8062,-0.8097,-0.8066,-0.8067,-0.8004,-0.7996,-0.7975,-0.7894,-0.7889,-0.7942,-0.7939,-0.7936,-0.7935,0,0,0,0,0,0,0,-0.8277,-0.8264,-0.8137,-0.8158,-0.8154,-0.8151,-0.8141,-0.8086,-0.8044,-0.8094,-0.8093,-0.8081,-0.8003,-0.798,-0.7973,-0.7888,-0.7942,-0.7937,-0.7934,-0.7932,-0.7752,-0.7751,0,0,0,0,0,0,-0.8287,-0.8269,-0.814,-0.8134,-0.8217,-0.8147,-0.8135,-0.8105,-0.8045,-0.8037,-0.808,-0.8081,-0.7988,-0.7979,-0.7969,-0.7894,-0.7937,-0.7932,-0.7929,-0.7754,-0.7752,-0.775,0,0,0,0,0,0,-0.8291,-0.8275,-0.8144,-0.8201,-0.8184,-0.8143,-0.8109,-0.8102,-0.8079,-0.8034,-0.8027,-0.8064,-0.7989,-0.7976,-0.7916,-0.789,-0.7929,-0.7924,-0.7756,-0.7753,-0.7751,-0.7743,0,0,0,0,0,0,-0.8296,-0.8277,-0.8253,-0.8201,-0.8181,-0.8092,-0.8107,-0.8099,-0.807,-0.807,-0.8017,-0.801,-0.7989,-0.7924,-0.7911,-0.7884,-0.792,-0.7758,-0.7755,-0.7752,-0.7745,-0.7741,-0.7737,0,0,0,0,0,-0.8302,-0.8255,-0.8252,-0.8237,-0.8151,-0.8091,-0.808,-0.8056,-0.8068,-0.8044,-0.8015,-0.8012,-0.7896,-0.7918,-0.7903,-0.7874,-0.7759,-0.7755,-0.7752,-0.7747,-0.7742,-0.7737,0,0,0,0,0,0,-0.8305,-0.8248,-0.8244,-0.8178,-0.814,-0.8089,-0.8057,-0.8051,-0.8008,-0.801,-0.7984,-0.7972,-0.7912,-0.7887,-0.7913,-0.7812,-0.7829,-0.7822,-0.783,-0.7824,-0.782,-0.7826,-0.7916,0,0,0,0,0,-0.8298,-0.8254,-0.8207,-0.8153,-0.8134,-0.8099,-0.8072,-0.8058,-0.8017,-0.8,-0.7967,-0.7927,-0.7882,-0.7852,-0.7808,-0.7743,-0.7731,-0.7716,-0.7711,-0.7708,-0.7702,-0.7665,-0.7657,-0.7738,-0.7738,-0.7738,0,0,-0.8283,-0.8247,-0.822,-0.8153,-0.8121,-0.8076,-0.8085,-0.8037,-0.8003,-0.7993,-0.7933,-0.7908,-0.7862,-0.7798,-0.7769,-0.7776,-0.7677,-0.7703,-0.7701,-0.7696,-0.766,-0.7653,-0.7646,-0.7736,-0.7736,-0.7736,0,0,-0.8232,-0.8201,-0.8152,-0.8121,-0.8073,-0.805,-0.8039,-0.7989,-0.7971,-0.7911,-0.7903,-0.7863,-0.7785,-0.7752,-0.7725,-0.7664,-0.7659,-0.7651,-0.7627,-0.7591,-0.7585,-0.7579,-0.7556,-0.7548,-0.7645,-0.7645,-0.7645,0,-0.822,-0.8151,-0.8129,-0.808,-0.8051,-0.804,-0.7991,-0.7962,-0.7902,-0.7882,-0.7891,-0.7793,-0.7761,-0.769,-0.7675,-0.7655,-0.764,-0.7655,-0.7588,-0.7582,-0.7576,-0.7554,-0.7545,-0.7644,-0.7644,-0.7644,-0.7644,0,-0.8137,-0.809,-0.8057,-0.7999,-0.7966,-0.7918,-0.7889,-0.7859,-0.7848,-0.7825,-0.7764,-0.7726,-0.7673,-0.7656,-0.7645,-0.7583,-0.7589,-0.7593,-0.7608,-0.7568,-0.7546,-0.7538,-0.7643,-0.7643,-0.7644,-0.7644,0,0,-0.8083,-0.8014,-0.8002,-0.7976,-0.7923,-0.7886,-0.7838,-0.7787,-0.7761,-0.7721,-0.7679,-0.7615,-0.7618,-0.7588,-0.7574,-0.7543,-0.7496,-0.7551,-0.755,-0.7541,-0.7424,-0.742,-0.741,-0.7493,-0.7491,-0.749,-0.7428,0,-0.8024,-0.7937,-0.7917,-0.7842,-0.7798,-0.7788,-0.7746,-0.7709,-0.7687,-0.7646,-0.7622,-0.7576,-0.7585,-0.7567,-0.7536,-0.7508,-0.7472,-0.7513,-0.7453,-0.7451,-0.7463,-0.7399,-0.7394,-0.7337,-0.7419,-0.7418,-0.7417,0,-0.7944,-0.7901,-0.7823,-0.7776,-0.7756,-0.7719,-0.7671,-0.7632,-0.7591,-0.7577,-0.7544,-0.7533,-0.7482,-0.7502,-0.7432,-0.7461,-0.7436,-0.7419,-0.7416,-0.7408,-0.743,-0.7387,-0.7318,-0.7309,-0.7404,-0.7405,-0.7406,0,-0.791,-0.7834,-0.7776,-0.7755,-0.7699,-0.7673,-0.7649,-0.7608,-0.7579,-0.7538,-0.7518,-0.7472,-0.7445,-0.741,-0.7386,-0.7403,-0.7318,-0.7336,-0.7304,-0.7305,-0.7285,-0.7286,-0.7208,-0.7272,-0.7272,-0.7273,-0.7273,0,-0.7845,-0.7797,-0.776,-0.7725,-0.7671,-0.7649,-0.7596,-0.7571,-0.7536,-0.7496,-0.7486,-0.7448,-0.7421,-0.738,-0.7362,-0.7306,-0.7295,-0.7282,-0.7277,-0.7281,-0.7283,-0.7263,-0.7265,-0.727,-0.7271,-0.7271,-0.7272,0,-0.7797,-0.7771,-0.7707,-0.7661,-0.7648,-0.761,-0.757,-0.7535,-0.7514,-0.7463,-0.745,-0.7415,-0.7367,-0.7341,-0.728,-0.7268,-0.7205,-0.7204,-0.7218,-0.7216,-0.7185,-0.7187,-0.709,-0.7075,-0.7151,-0.7151,-0.715,0,-0.7756,-0.7719,-0.7668,-0.764,-0.7616,-0.7571,-0.7542,-0.7519,-0.7489,-0.7439,-0.7411,-0.7362,-0.7321,-0.7243,-0.7213,-0.7166,-0.7163,-0.7132,-0.7155,-0.7161,-0.716,-0.7162,-0.7157,-0.7127,-0.7126,-0.7126,-0.7125,0,-0.7686,-0.7675,-0.7633,-0.7586,-0.7551,-0.7513,-0.7475,-0.7454,-0.7425,-0.7391,-0.7341,-0.731,-0.7248,-0.7199,-0.7151,-0.7126,-0.712,-0.7119,-0.7108,-0.7111,-0.712,-0.7113,-0.7205,-0.712,-0.7121,-0.7121,-0.7121,-0.7121,-0.7638,-0.7605,-0.7564,-0.7517,-0.7487,-0.7452,-0.7418,-0.7392,-0.735,-0.7297,-0.7288,-0.7234,-0.7195,-0.7129,-0.7103,-0.7062,-0.7068,-0.7053,-0.7049,-0.7045,-0.7043,-0.7129,-0.7053,-0.7053,-0.7053,-0.7053,-0.7053,0,-0.7566,-0.754,-0.7497,-0.7445,-0.7409,-0.7408,-0.7367,-0.7336,-0.729,-0.7254,-0.7214,-0.7157,-0.711,-0.7077,-0.7029,-0.7002,-0.6998,-0.699,-0.699,-0.6984,-0.7041,-0.7054,-0.6994,-0.6994,-0.6994,-0.6994,-0.6994,-0.6994,-0.7524,-0.7466,-0.7451,-0.7379,-0.7353,-0.7301,-0.7278,-0.7246,-0.7217,-0.7154,-0.7114,-0.7094,-0.7058,-0.7008,-0.6965,-0.6957,-0.6939,-0.693,-0.6921,-0.6974,-0.6981,-0.6986,-0.6998,-0.6927,-0.6927,-0.6868,-0.6867,-0.6867]}]]